Tenerife, Spain

1:20 PM WET on January 19, 2018 (GMT +0000)
Tenerife

Weather History for GCXO - January, 2018

Change the Weather History Date:

Saturday, January 13, 2018

  Actual Average Record
Temperature  
Mean Temperature 56 °F -  
Max Temperature 60 °F 58 °F 73 °F (2016)
Min Temperature 52 °F 49 °F 41 °F (2008)
Degree Days  
Heating Degree Days 9    
Growing Degree Days 6 (Base 50)    
Moisture  
Dew Point 50 °F    
Average Humidity 82    
Maximum Humidity 100    
Minimum Humidity 58    
Precipitation  
Precipitation 0.01 in - - ()
Sea Level Pressure  
Sea Level Pressure 30.28 in    
Wind  
Wind Speed 10 mph ()    
Max Wind Speed 16 mph    
Max Gust Speed 22 mph    
Visibility 6.8 miles    
Events      
Averages and records for this station are not official NWS values.
T = Trace of Precipitation, MM = Missing Value Source: Averaged Metar Reports

Daily Weather History Graph

Daily Weather History Graph

Search for Another Location

Airport or City:

Trip Planner

Search our weather history database for the weather conditions in past years. The results will help you decide how hot, cold, wet, or windy it might be!

Date:

Astronomy

Jan. 13, 2018 Rise Set
Actual Time 7:59 AM WET 6:29 PM WET
Civil Twilight 7:33 AM WET 6:54 PM WET
Nautical Twilight 7:04 AM WET 7:23 PM WET
Astronomical Twilight 6:36 AM WET 7:52 PM WET
Moon 4:54 AM WET (1/13) 3:53 PM WET (1/13)
Length of Visible Light 11h 21m
Length of Day
10h 30m
Waning Crescent, 11% of the Moon is Illuminated
Jan 13
Waning Crescent
Jan 17
New
Jan 24
First Quarter
Jan 31
Full
Feb 7
Last Quarter

Hourly Weather History & Observations

Time (WET) Temp. Dew Point Humidity Pressure Visibility Wind Dir Wind Speed Gust Speed Precip Events Conditions
12:00 AM 54 °F 49 °F 77% 30.27 in 19 mi NW 13.8 mph - -  
12:00 AM 53.6 °F 50.0 °F 88% 30.27 in 6.2 mi NW 12.7 mph - N/A   Overcast
12:30 AM 53.6 °F 48.2 °F 82% 30.27 in 6.2 mi NW 13.8 mph - N/A   Overcast
1:00 AM 53.6 °F 48.2 °F 82% 30.27 in 6.2 mi NNW 15.0 mph - N/A   Overcast
1:30 AM 53.6 °F 48.2 °F 82% 30.24 in 6.2 mi NW 15.0 mph - N/A   Overcast
2:00 AM 53.6 °F 48.2 °F 82% 30.24 in 6.2 mi WNW 16.1 mph - N/A   Overcast
2:30 AM 53.6 °F 48.2 °F 82% 30.24 in 6.2 mi NW 13.8 mph - N/A   Overcast
3:00 AM 53.6 °F 48.2 °F 82% 30.24 in 6.2 mi NW 12.7 mph - N/A   Overcast
3:30 AM 53.6 °F 48.2 °F 82% 30.24 in 6.2 mi NNW 8.1 mph - N/A   Overcast
4:30 AM 53.6 °F 48.2 °F 82% 30.24 in 6.2 mi NW 11.5 mph - N/A   Overcast
5:00 AM 53.6 °F 48.2 °F 82% 30.21 in 6.2 mi NW 10.4 mph - N/A   Overcast
5:30 AM 53.6 °F 48.2 °F 82% 30.24 in 6.2 mi NW 10.4 mph - N/A   Overcast
6:00 AM 53 °F 48 °F 78% 30.24 in 19 mi NW 11.5 mph - -   Mostly Cloudy
6:00 AM 53.6 °F 48.2 °F 82% 30.24 in 6.2 mi NNW 10.4 mph - N/A   Mostly Cloudy
6:30 AM 53.6 °F 48.2 °F 82% 30.24 in 6.2 mi NW 11.5 mph - N/A   Mostly Cloudy
7:00 AM 53.6 °F 48.2 °F 82% 30.24 in 6.2 mi NW 11.5 mph - N/A   Mostly Cloudy
8:00 AM 53.6 °F 48.2 °F 82% 30.27 in 6.2 mi NW 13.8 mph - N/A   Mostly Cloudy
8:30 AM 53.6 °F 48.2 °F 82% 30.27 in 6.2 mi NW 12.7 mph - N/A   Mostly Cloudy
9:00 AM 54 °F 48 °F 72% 30.28 in 19 mi NW 12.7 mph - -   Mostly Cloudy
9:00 AM 53.6 °F 48.2 °F 82% 30.27 in 6.2 mi NNW 11.5 mph - N/A   Mostly Cloudy
9:30 AM 55.4 °F 48.2 °F 77% 30.30 in 6.2 mi NW 15.0 mph - N/A   Mostly Cloudy
10:00 AM 55.4 °F 48.2 °F 77% 30.30 in 6.2 mi NW 15.0 mph - N/A   Mostly Cloudy
10:30 AM 55.4 °F 48.2 °F 77% 30.30 in 6.2 mi NW 12.7 mph - N/A   Mostly Cloudy
11:00 AM 59.0 °F 50.0 °F 72% 30.33 in 6.2 mi NNW 10.4 mph 21.9 mph N/A   Mostly Cloudy
11:30 AM 59.0 °F 50.0 °F 72% 30.33 in 6.2 mi Variable 8.1 mph - N/A   Mostly Cloudy
12:00 PM 60 °F 49 °F 58% 30.30 in 19 mi North 9.2 mph - -   Mostly Cloudy
12:00 PM 59.0 °F 50.0 °F 72% 30.33 in 6.2 mi North 9.2 mph - N/A   Mostly Cloudy
12:30 PM 59.0 °F 48.2 °F 67% 30.33 in 6.2 mi NNE 9.2 mph 20.7 mph N/A   Mostly Cloudy
1:00 PM 59.0 °F 48.2 °F 67% 30.30 in 6.2 mi North 6.9 mph - N/A   Mostly Cloudy
1:30 PM 57.2 °F 48.2 °F 72% 30.30 in 6.2 mi North 9.2 mph - N/A   Mostly Cloudy
2:00 PM 59.0 °F 50.0 °F 72% 30.27 in 6.2 mi North 8.1 mph - N/A   Mostly Cloudy
2:30 PM 59.0 °F 50.0 °F 72% 30.27 in 6.2 mi North 6.9 mph - N/A   Scattered Clouds
3:00 PM 59.0 °F 48.2 °F 67% 30.27 in 6.2 mi Variable 5.8 mph - N/A   Scattered Clouds
3:30 PM 59.0 °F 50.0 °F 72% 30.27 in 6.2 mi North 9.2 mph - N/A   Scattered Clouds
4:00 PM 59.0 °F 50.0 °F 72% 30.27 in 6.2 mi NNE 8.1 mph - N/A   Mostly Cloudy
4:30 PM 57.2 °F 51.8 °F 82% 30.27 in 6.2 mi Variable 2.3 mph - N/A   Mostly Cloudy
5:00 PM 57.2 °F 51.8 °F 82% 30.27 in 6.2 mi NNW 4.6 mph - N/A   Mostly Cloudy
5:30 PM 55.4 °F 51.8 °F 88% 30.27 in 6.2 mi NNE 4.6 mph - N/A   Mostly Cloudy
6:00 PM 56 °F 52 °F 83% 30.25 in 7 mi NW 8.1 mph - -   Mostly Cloudy
6:00 PM 55.4 °F 51.8 °F 88% 30.27 in 6.2 mi NNW 6.9 mph - N/A   Mostly Cloudy
6:30 PM 55.4 °F 53.6 °F 94% 30.27 in 6.2 mi NW 5.8 mph - N/A   Mostly Cloudy
7:00 PM 55.4 °F 51.8 °F 88% 30.27 in 6.2 mi NNW 8.1 mph - N/A   Mostly Cloudy
7:30 PM 55.4 °F 51.8 °F 88% 30.27 in 6.2 mi North 3.5 mph - N/A   Mostly Cloudy
8:00 PM 55.4 °F 51.8 °F 88% 30.27 in 6.2 mi Variable 1.2 mph - N/A   Mostly Cloudy
8:30 PM 55.4 °F 53.6 °F 94% 30.27 in 5.6 mi WNW 3.5 mph - N/A   Mostly Cloudy
8:43 PM 55.4 °F 53.6 °F 94% 30.30 in 2.5 mi WNW 3.5 mph - N/A   Mostly Cloudy
9:00 PM 55.4 °F 53.6 °F 94% 30.30 in 3.1 mi Variable 2.3 mph - N/A   Light Drizzle
9:15 PM 55.4 °F 53.6 °F 94% 30.30 in 5.0 mi West 3.5 mph - N/A   Mostly Cloudy
9:30 PM 55.4 °F 53.6 °F 94% 30.30 in 3.7 mi Variable 2.3 mph - N/A   Light Drizzle
10:00 PM 55.4 °F 55.4 °F 100% 30.30 in 4.3 mi West 4.6 mph - N/A   Light Drizzle
10:18 PM 55.4 °F 55.4 °F 100% 30.30 in 4.3 mi West 5.8 mph - N/A   Drizzle
10:30 PM 55.4 °F 55.4 °F 100% 30.30 in 4.3 mi West 5.8 mph - N/A   Drizzle
11:00 PM 55.4 °F 55.4 °F 100% 30.30 in 5.0 mi WNW 8.1 mph - N/A   Drizzle
11:30 PM 55.4 °F 55.4 °F 100% 30.30 in 4.3 mi NW 5.8 mph - N/A   Overcast